Location: Alafon
(8.4500°N, 4.2333°E)
Time: 03:34:06
(UTC+00:00)

Vanguard 2 - Pass Details

Date: 03 August 2021
Orbit: 552 x 2937 km, 32.9° (Epoch: 21 September)

Event Time Altitude Azimuth Distance (km) Brightness Sun altitude
Rises 07:03:36 0° 335° (NNW) 3,254 10.7 20.2°
Reaches altitude 10° 07:08:01 10° 10° (N) 2,745 10.8 21.2°
Maximum altitude 07:10:03 11° 28° (NNE) 2,851 11.2 21.7°
Drops below altitude 10° 07:12:19 10° 46° (NE) 3,194 11.9 22.2°
Sets 07:19:01 0° 76° (ENE) 4,876 13.1 23.8°
